Estación de Longaví Norte

Ultimos registro cada 15 minutos 47
Estación Fecha / Hora Temperatura Humedad Lluvia Velocidad Dirección Radiación Presion
47 Longaví Norte 05-05-2026 11:30 17,4 86,2 0 0,3 170 323,1 994,4
46 Longaví Norte 05-05-2026 11:15 17,5 88,5 0 0,3 174 284,4 994,5
45 Longaví Norte 05-05-2026 11:00 16,9 89 0 0,3 125 273,1 994,7
44 Longaví Norte 05-05-2026 10:45 16,3 93,9 0 0 188 261,9 994,8
43 Longaví Norte 05-05-2026 10:30 15,1 98,9 0 0,3 185 215,6 994,8
42 Longaví Norte 05-05-2026 10:15 14,9 100 0 0,3 180 238,1 994,9
41 Longaví Norte 05-05-2026 10:00 13,7 100 0 0,7 204 178,1 994,6
40 Longaví Norte 05-05-2026 09:45 13,4 100 0 1 227 173,1 994,9
39 Longaví Norte 05-05-2026 09:30 13,2 100 0 0,7 219 180,6 994,9
38 Longaví Norte 05-05-2026 09:15 12,7 100 0 0,7 201 129,4 995
37 Longaví Norte 05-05-2026 09:00 12,5 100 0 0 206 118,1 995,5
36 Longaví Norte 05-05-2026 08:45 12,2 100 0 0,3 211 73,1 995,5
35 Longaví Norte 05-05-2026 08:30 12 100 0 0 329 53,1 995,4
34 Longaví Norte 05-05-2026 08:15 11,7 100 0 0 330 50,6 995,8
33 Longaví Norte 05-05-2026 08:00 11,6 100 0 0,3 53 21,9 995,9
32 Longaví Norte 05-05-2026 07:45 11,6 100 0 0,7 178 9,4 995,7
31 Longaví Norte 05-05-2026 07:30 11,5 100 0 0,3 135 0,6 996,3
30 Longaví Norte 05-05-2026 07:15 11,6 100 0 0 55 0,6 995,5
29 Longaví Norte 05-05-2026 07:00 11,6 100 0 0 95 0,6 995,9
28 Longaví Norte 05-05-2026 06:45 11,8 100 0 0,3 334 0,6 995,9
27 Longaví Norte 05-05-2026 06:30 11,9 100 0 0,3 185 0,6 996,7
26 Longaví Norte 05-05-2026 06:15 11,7 100 0 0,3 80 0,6 995,6
25 Longaví Norte 05-05-2026 06:00 11,8 100 0 0,7 309 0,6 996,9
24 Longaví Norte 05-05-2026 05:45 11,6 100 0 0,3 204 0,6 994,9
23 Longaví Norte 05-05-2026 05:30 11,8 100 0 1 331 0,6 996,9
22 Longaví Norte 05-05-2026 05:15 11,5 100 0 0,7 173 0,6 994,2
21 Longaví Norte 05-05-2026 05:00 11,4 100 0 0,3 345 0,6 996,8
20 Longaví Norte 05-05-2026 04:45 11,4 100 0 0,7 309 0,6 996,1
19 Longaví Norte 05-05-2026 04:30 11,1 100 0 0 126 0,6 996,3
18 Longaví Norte 05-05-2026 04:15 11,4 100 0 0,3 229 0,6 996,8
17 Longaví Norte 05-05-2026 04:00 11,3 100 0 0,3 233 0,6 996,4
16 Longaví Norte 05-05-2026 03:45 11,2 100 0 0 195 0,6 996,1
15 Longaví Norte 05-05-2026 03:30 11,2 100 0 0,3 216 0,6 996,1
14 Longaví Norte 05-05-2026 03:15 10,9 100 0 0 195 0,6 996,7
13 Longaví Norte 05-05-2026 03:00 10,5 100 0 0 192 0,6 996,3
12 Longaví Norte 05-05-2026 02:45 10,6 100 0 0 192 0,6 996,3
11 Longaví Norte 05-05-2026 02:30 10,4 100 0 0 192 0,6 996,2
10 Longaví Norte 05-05-2026 02:15 10,1 100 0 0 192 0,6 996,3
9 Longaví Norte 05-05-2026 02:00 10,2 100 0 0 192 0,6 996,6
8 Longaví Norte 05-05-2026 01:45 10,3 100 0 0 192 0,6 996,7
7 Longaví Norte 05-05-2026 01:30 10,3 100 0 0 192 0,6 996,8
6 Longaví Norte 05-05-2026 01:15 10,2 100 0 0 192 0,6 996,9
5 Longaví Norte 05-05-2026 01:00 10,3 100 0 0 192 0,6 997,2
4 Longaví Norte 05-05-2026 00:45 10,4 100 0 0 192 0,6 997,3
3 Longaví Norte 05-05-2026 00:30 10,6 100 0 0 192 0,6 997,3
2 Longaví Norte 05-05-2026 00:15 10,8 100 0 0 192 0,6 997,3
1 Longaví Norte 05-05-2026 00:00 10,8 100 0 0 192 0,6 997,2